Time,TemperatureF,DewpointF,PressureIn,WindDirection,WindDirectionDegrees,WindSpeedMPH,WindSpeedGustMPH,Humidity,HourlyPrecipIn,Conditions,Clouds,dailyrainin,SolarRadiationWatts/m^2,SoftwareType,DateUTC
2013-09-07 00:02:00,72.3,64.0,29.88,NW,309,0.0,0.0,76,0.00,,,0.00,0,Custom,2013-09-07 05:02:00,
2013-09-07 00:07:00,72.2,64.0,29.87,NW,312,0.0,0.0,76,0.00,,,0.00,0,Custom,2013-09-07 05:07:00,
2013-09-07 00:12:00,72.4,64.0,29.88,NW,311,0.0,0.0,76,0.00,,,0.00,0,Custom,2013-09-07 05:12:00,
2013-09-07 00:17:00,72.4,64.0,29.88,NW,309,0.0,0.0,76,0.00,,,0.00,0,Custom,2013-09-07 05:17:00,
2013-09-07 00:22:00,72.3,64.0,29.88,NW,310,0.0,0.0,76,0.00,,,0.00,0,Custom,2013-09-07 05:22:00,
2013-09-07 00:27:00,72.2,64.0,29.88,NW,310,0.0,0.0,76,0.00,,,0.00,0,Custom,2013-09-07 05:27:00,
2013-09-07 00:32:00,72.1,64.0,29.88,NW,310,0.0,0.0,76,0.00,,,0.00,0,Custom,2013-09-07 05:32:00,
2013-09-07 00:37:00,72.2,64.0,29.88,NW,314,0.0,0.0,77,0.00,,,0.00,0,Custom,2013-09-07 05:37:00,
2013-09-07 00:42:00,72.2,64.0,29.88,NNW,330,0.0,0.0,76,0.00,,,0.00,0,Custom,2013-09-07 05:42:00,
2013-09-07 00:47:00,72.1,64.0,29.88,NW,308,0.0,0.0,76,0.00,,,0.00,0,Custom,2013-09-07 05:47:00,
2013-09-07 00:52:00,71.9,64.0,29.87,NW,325,0.0,0.0,77,0.00,,,0.00,0,Custom,2013-09-07 05:52:00,
2013-09-07 00:57:00,71.8,64.0,29.87,NW,307,0.0,0.0,77,0.00,,,0.00,0,Custom,2013-09-07 05:57:00,
2013-09-07 01:02:00,71.8,64.0,29.87,NW,307,0.0,0.0,77,0.00,,,0.00,0,Custom,2013-09-07 06:02:00,
2013-09-07 01:07:00,71.5,64.0,29.87,NW,307,0.0,0.0,77,0.00,,,0.00,0,Custom,2013-09-07 06:07:00,
2013-09-07 01:12:00,71.3,64.0,29.87,NW,307,0.0,0.0,78,0.00,,,0.00,0,Custom,2013-09-07 06:12:00,
2013-09-07 01:17:00,71.2,64.0,29.87,NW,307,0.0,0.0,78,0.00,,,0.00,0,Custom,2013-09-07 06:17:00,
2013-09-07 01:22:00,71.2,64.0,29.88,NW,308,0.0,0.0,78,0.00,,,0.00,0,Custom,2013-09-07 06:22:00,
2013-09-07 01:27:00,71.2,64.0,29.87,NW,311,0.0,0.0,78,0.00,,,0.00,0,Custom,2013-09-07 06:27:00,
2013-09-07 01:32:00,71.2,64.0,29.87,NW,311,0.0,0.0,78,0.00,,,0.00,0,Custom,2013-09-07 06:32:00,
2013-09-07 01:37:00,70.9,64.0,29.87,NW,310,0.0,0.0,78,0.00,,,0.00,0,Custom,2013-09-07 06:37:00,
2013-09-07 01:42:00,70.6,64.0,29.87,NW,310,0.0,0.0,79,0.00,,,0.00,0,Custom,2013-09-07 06:42:00,
2013-09-07 01:47:00,70.5,64.0,29.87,NW,311,0.0,0.0,79,0.00,,,0.00,0,Custom,2013-09-07 06:47:00,
2013-09-07 01:52:00,70.4,64.0,29.88,NW,310,0.0,0.0,79,0.00,,,0.00,0,Custom,2013-09-07 06:52:00,
2013-09-07 01:57:00,70.3,64.0,29.88,NW,310,0.0,0.0,80,0.00,,,0.00,0,Custom,2013-09-07 06:57:00,
2013-09-07 02:02:00,70.3,64.0,29.87,NW,310,0.0,0.0,79,0.00,,,0.00,0,Custom,2013-09-07 07:02:00,
2013-09-07 02:07:00,70.1,64.0,29.87,NW,310,0.0,0.0,80,0.00,,,0.00,0,Custom,2013-09-07 07:07:00,
2013-09-07 02:12:00,69.8,64.0,29.87,NW,310,0.0,0.0,80,0.00,,,0.00,0,Custom,2013-09-07 07:12:00,
2013-09-07 02:17:00,69.6,64.0,29.87,NW,312,0.0,0.0,81,0.00,,,0.00,0,Custom,2013-09-07 07:17:00,
2013-09-07 02:22:00,69.3,63.0,29.87,NW,311,0.0,0.0,81,0.00,,,0.00,0,Custom,2013-09-07 07:22:00,
2013-09-07 02:27:00,68.9,63.0,29.87,NW,311,0.0,0.0,82,0.00,,,0.00,0,Custom,2013-09-07 07:27:00,
2013-09-07 02:32:00,68.6,63.0,29.87,NNW,341,0.0,0.0,83,0.00,,,0.00,0,Custom,2013-09-07 07:32:00,
2013-09-07 02:37:00,68.4,63.0,29.87,NW,310,0.0,0.0,83,0.00,,,0.00,0,Custom,2013-09-07 07:37:00,
2013-09-07 02:42:00,68.3,63.0,29.87,NW,310,0.0,0.0,84,0.00,,,0.00,0,Custom,2013-09-07 07:42:00,
2013-09-07 02:47:00,68.5,64.0,29.86,NW,309,0.0,0.0,84,0.00,,,0.00,0,Custom,2013-09-07 07:47:00,
2013-09-07 02:52:00,68.7,64.0,29.87,NW,310,0.0,0.0,84,0.00,,,0.00,0,Custom,2013-09-07 07:52:00,
2013-09-07 02:57:00,69.0,64.0,29.87,NW,309,0.0,0.0,84,0.00,,,0.00,0,Custom,2013-09-07 07:57:00,
2013-09-07 03:02:00,68.9,64.0,29.87,NW,310,0.0,0.0,84,0.00,,,0.00,0,Custom,2013-09-07 08:02:00,
2013-09-07 03:07:00,68.9,64.0,29.87,NW,310,0.0,0.0,84,0.00,,,0.00,0,Custom,2013-09-07 08:07:00,
2013-09-07 03:12:00,68.7,64.0,29.87,NW,310,0.0,0.0,84,0.00,,,0.00,0,Custom,2013-09-07 08:12:00,
2013-09-07 03:17:00,68.7,64.0,29.87,NW,310,0.0,0.0,84,0.00,,,0.00,0,Custom,2013-09-07 08:17:00,
2013-09-07 03:22:00,68.6,64.0,29.87,NW,310,0.0,0.0,84,0.00,,,0.00,0,Custom,2013-09-07 08:22:00,
2013-09-07 03:27:00,68.6,64.0,29.86,NW,310,0.0,0.0,85,0.00,,,0.00,0,Custom,2013-09-07 08:27:00,
2013-09-07 03:32:00,68.5,64.0,29.86,NW,311,0.0,0.0,85,0.00,,,0.00,0,Custom,2013-09-07 08:32:00,
2013-09-07 03:37:00,68.6,64.0,29.86,NW,311,0.0,0.0,85,0.00,,,0.00,0,Custom,2013-09-07 08:37:00,
2013-09-07 03:42:00,68.8,64.0,29.87,NW,311,0.0,0.0,85,0.00,,,0.00,0,Custom,2013-09-07 08:42:00,
2013-09-07 03:47:00,68.8,64.0,29.87,NW,319,0.0,0.0,84,0.00,,,0.00,0,Custom,2013-09-07 08:47:00,
2013-09-07 03:52:00,68.8,64.0,29.86,NW,325,0.0,0.0,84,0.00,,,0.00,0,Custom,2013-09-07 08:52:00,
2013-09-07 03:57:00,68.8,64.0,29.87,NW,310,0.0,0.0,85,0.00,,,0.00,0,Custom,2013-09-07 08:57:00,
2013-09-07 04:02:00,68.8,64.0,29.86,NW,310,0.0,0.0,84,0.00,,,0.00,0,Custom,2013-09-07 09:02:00,
2013-09-07 04:07:00,68.9,64.0,29.87,NW,311,0.0,0.0,84,0.00,,,0.00,0,Custom,2013-09-07 09:07:00,
2013-09-07 04:12:00,68.7,64.0,29.87,NW,310,0.0,0.0,85,0.00,,,0.00,0,Custom,2013-09-07 09:12:00,
2013-09-07 04:17:00,68.7,64.0,29.87,NW,310,0.0,0.0,85,0.00,,,0.00,0,Custom,2013-09-07 09:17:00,
2013-09-07 04:22:00,68.6,64.0,29.87,NW,310,0.0,0.0,85,0.00,,,0.00,0,Custom,2013-09-07 09:22:00,
2013-09-07 04:27:00,68.5,64.0,29.87,NW,311,0.0,0.0,85,0.00,,,0.00,0,Custom,2013-09-07 09:27:00,
2013-09-07 04:32:00,68.5,64.0,29.87,NW,311,0.0,0.0,85,0.00,,,0.00,0,Custom,2013-09-07 09:32:00,
2013-09-07 04:37:00,68.6,64.0,29.87,NW,312,0.0,0.0,85,0.00,,,0.00,0,Custom,2013-09-07 09:37:00,
2013-09-07 04:42:00,68.4,64.0,29.87,NW,310,0.0,0.0,85,0.00,,,0.00,0,Custom,2013-09-07 09:42:00,
2013-09-07 04:47:00,68.3,64.0,29.87,NW,310,0.0,0.0,86,0.00,,,0.00,0,Custom,2013-09-07 09:47:00,
2013-09-07 04:52:00,68.1,64.0,29.87,NW,309,0.0,0.0,86,0.00,,,0.00,0,Custom,2013-09-07 09:52:00,
2013-09-07 04:57:00,67.9,64.0,29.87,NW,310,0.0,0.0,86,0.00,,,0.00,0,Custom,2013-09-07 09:57:00,
2013-09-07 05:02:00,67.7,64.0,29.87,NW,309,0.0,0.0,86,0.00,,,0.00,0,Custom,2013-09-07 10:02:00,
2013-09-07 05:07:00,67.5,63.0,29.87,NW,309,0.0,0.0,87,0.00,,,0.00,0,Custom,2013-09-07 10:07:00,
2013-09-07 05:12:00,67.4,63.0,29.87,NW,309,0.0,0.0,86,0.00,,,0.00,0,Custom,2013-09-07 10:12:00,
2013-09-07 05:17:00,67.4,64.0,29.87,NW,309,0.0,0.0,87,0.00,,,0.00,0,Custom,2013-09-07 10:17:00,
2013-09-07 05:22:00,67.4,63.0,29.87,NW,310,0.0,0.0,87,0.00,,,0.00,0,Custom,2013-09-07 10:22:00,
2013-09-07 05:27:00,67.2,63.0,29.87,NW,311,0.0,0.0,87,0.00,,,0.00,0,Custom,2013-09-07 10:27:00,
2013-09-07 05:32:00,67.1,63.0,29.87,NW,312,0.0,0.0,88,0.00,,,0.00,0,Custom,2013-09-07 10:32:00,
2013-09-07 05:37:00,67.0,63.0,29.87,NW,311,0.0,0.0,87,0.00,,,0.00,0,Custom,2013-09-07 10:37:00,
2013-09-07 05:42:00,66.8,63.0,29.87,NW,311,0.0,0.0,88,0.00,,,0.00,0,Custom,2013-09-07 10:42:00,
2013-09-07 05:47:00,66.6,63.0,29.87,NW,311,0.0,0.0,88,0.00,,,0.00,0,Custom,2013-09-07 10:47:00,
2013-09-07 05:52:00,66.6,63.0,29.87,NW,311,0.0,0.0,88,0.00,,,0.00,0,Custom,2013-09-07 10:52:00,
2013-09-07 05:57:00,66.6,63.0,29.87,NW,313,0.0,0.0,88,0.00,,,0.00,0,Custom,2013-09-07 10:57:00,
2013-09-07 06:02:00,66.6,63.0,29.88,NW,313,0.0,0.0,89,0.00,,,0.00,0,Custom,2013-09-07 11:02:00,
2013-09-07 06:07:00,66.6,63.0,29.88,NW,313,0.0,0.0,89,0.00,,,0.00,0,Custom,2013-09-07 11:07:00,
2013-09-07 06:12:00,66.5,63.0,29.88,NW,313,0.0,0.0,89,0.00,,,0.00,0,Custom,2013-09-07 11:12:00,
2013-09-07 06:17:00,66.5,63.0,29.88,NW,313,0.0,0.0,89,0.00,,,0.00,0,Custom,2013-09-07 11:17:00,
2013-09-07 06:22:00,66.6,63.0,29.88,NW,313,0.0,0.0,89,0.00,,,0.00,0,Custom,2013-09-07 11:22:00,
2013-09-07 06:27:00,66.7,63.0,29.88,NW,313,0.0,0.0,88,0.00,,,0.00,0,Custom,2013-09-07 11:27:00,
2013-09-07 06:32:00,66.8,63.0,29.88,NW,313,0.0,0.0,89,0.00,,,0.00,0,Custom,2013-09-07 11:32:00,
2013-09-07 06:37:00,66.8,63.0,29.88,NW,312,0.0,0.0,89,0.00,,,0.00,0,Custom,2013-09-07 11:37:00,
2013-09-07 06:42:00,66.8,63.0,29.88,NW,312,0.0,0.0,89,0.00,,,0.00,0,Custom,2013-09-07 11:42:00,
2013-09-07 06:47:00,66.9,64.0,29.88,NW,312,0.0,0.0,89,0.00,,,0.00,0,Custom,2013-09-07 11:47:00,
2013-09-07 06:52:00,66.9,64.0,29.88,NW,312,0.0,0.0,89,0.00,,,0.00,0,Custom,2013-09-07 11:52:00,
2013-09-07 06:57:00,67.0,64.0,29.89,NW,312,0.0,0.0,89,0.00,,,0.00,0,Custom,2013-09-07 11:57:00,
2013-09-07 07:02:00,67.2,64.0,29.88,NNW,327,0.0,0.0,88,0.00,,,0.00,0,Custom,2013-09-07 12:02:00,
2013-09-07 07:07:00,67.5,64.0,29.88,NNW,327,0.0,0.0,88,0.00,,,0.00,8.58,Custom,2013-09-07 12:07:00,
2013-09-07 07:12:00,68.2,64.0,29.88,NNW,327,0.0,0.0,87,0.00,,,0.00,10.53,Custom,2013-09-07 12:12:00,
2013-09-07 07:17:00,68.4,64.0,29.88,NNW,327,0.0,0.0,86,0.00,,,0.00,12.09,Custom,2013-09-07 12:17:00,
2013-09-07 07:22:00,68.9,64.0,29.88,NNW,327,0.0,0.0,85,0.00,,,0.00,14.82,Custom,2013-09-07 12:22:00,
2013-09-07 07:27:00,69.2,64.0,29.88,NW,326,0.0,0.0,85,0.00,,,0.00,17.55,Custom,2013-09-07 12:27:00,
2013-09-07 07:32:00,69.6,65.0,29.88,NW,326,0.0,0.0,84,0.00,,,0.00,21.84,Custom,2013-09-07 12:32:00,
2013-09-07 07:37:00,70.2,65.0,29.88,NW,309,0.0,0.0,83,0.00,,,0.00,27.69,Custom,2013-09-07 12:37:00,
2013-09-07 07:42:00,70.5,65.0,29.88,NW,309,0.0,0.0,82,0.00,,,0.00,32.76,Custom,2013-09-07 12:42:00,
2013-09-07 07:47:00,71.4,65.0,29.88,NW,307,0.0,0.0,81,0.00,,,0.00,40.95,Custom,2013-09-07 12:47:00,
2013-09-07 07:52:00,72.6,65.0,29.88,NW,307,0.0,0.0,77,0.00,,,0.00,47.58,Custom,2013-09-07 12:52:00,
2013-09-07 07:57:00,73.4,65.0,29.88,NW,306,0.0,0.0,75,0.00,,,0.00,58.11,Custom,2013-09-07 12:57:00,
2013-09-07 08:02:00,74.1,64.0,29.89,NW,306,0.0,0.0,73,0.00,,,0.00,75.66,Custom,2013-09-07 13:02:00,
2013-09-07 08:07:00,74.5,65.0,29.88,NW,306,0.0,0.0,71,0.00,,,0.00,88.53,Custom,2013-09-07 13:07:00,
2013-09-07 08:12:00,75.2,64.0,29.88,NW,304,0.0,0.0,69,0.00,,,0.00,105.69,Custom,2013-09-07 13:12:00,
2013-09-07 08:17:00,75.9,65.0,29.89,NW,308,0.0,0.0,68,0.00,,,0.00,111.54,Custom,2013-09-07 13:17:00,
2013-09-07 08:22:00,76.0,65.0,29.89,WNW,303,0.0,0.0,69,0.00,,,0.00,142.35,Custom,2013-09-07 13:22:00,
2013-09-07 08:27:00,75.7,65.0,29.89,NW,305,0.0,0.0,69,0.00,,,0.00,79.17,Custom,2013-09-07 13:27:00,
2013-09-07 08:32:00,75.7,65.0,29.89,NW,320,0.0,0.0,69,0.00,,,0.00,123.63,Custom,2013-09-07 13:32:00,
2013-09-07 08:37:00,75.8,65.0,29.88,WNW,303,0.0,0.0,70,0.00,,,0.00,153.27,Custom,2013-09-07 13:37:00,
2013-09-07 08:42:00,75.8,65.0,29.89,WNW,300,0.0,0.0,70,0.00,,,0.00,90.87,Custom,2013-09-07 13:42:00,
2013-09-07 08:47:00,75.4,65.0,29.88,NW,318,0.0,0.0,71,0.00,,,0.00,86.97,Custom,2013-09-07 13:47:00,
2013-09-07 08:52:00,75.4,66.0,29.88,NW,306,0.0,0.0,72,0.00,,,0.00,82.68,Custom,2013-09-07 13:52:00,
2013-09-07 08:57:00,75.4,66.0,29.88,WNW,298,0.0,0.0,73,0.00,,,0.00,79.56,Custom,2013-09-07 13:57:00,
2013-09-07 09:02:00,75.4,66.0,29.88,WNW,296,0.0,0.0,72,0.00,,,0.00,83.85,Custom,2013-09-07 14:02:00,
2013-09-07 09:07:00,75.7,66.0,29.88,NW,318,0.0,0.0,73,0.00,,,0.00,99.45,Custom,2013-09-07 14:07:00,
2013-09-07 09:12:00,76.1,66.0,29.88,WNW,300,0.0,0.0,72,0.00,,,0.00,118.56,Custom,2013-09-07 14:12:00,
2013-09-07 09:17:00,76.3,66.0,29.88,NW,306,0.0,0.0,71,0.00,,,0.00,115.05,Custom,2013-09-07 14:17:00,
2013-09-07 09:22:00,76.6,67.0,29.88,NW,321,0.0,0.0,72,0.00,,,0.00,126.75,Custom,2013-09-07 14:22:00,
2013-09-07 09:27:00,76.9,66.0,29.88,NW,304,0.0,0.0,70,0.00,,,0.00,137.67,Custom,2013-09-07 14:27:00,
2013-09-07 09:32:00,77.2,66.0,29.88,WNW,303,0.0,0.0,70,0.00,,,0.00,124.8,Custom,2013-09-07 14:32:00,
2013-09-07 09:37:00,77.2,67.0,29.89,WNW,301,0.0,0.0,70,0.00,,,0.00,123.24,Custom,2013-09-07 14:37:00,
2013-09-07 09:42:00,77.7,67.0,29.88,WNW,300,0.0,0.0,70,0.00,,,0.00,166.92,Custom,2013-09-07 14:42:00,
2013-09-07 09:47:00,78.6,67.0,29.88,WNW,297,0.0,0.0,68,0.00,,,0.00,291.72,Custom,2013-09-07 14:47:00,
2013-09-07 09:52:00,81.1,68.0,29.89,WNW,303,0.0,0.0,64,0.00,,,0.00,411.45,Custom,2013-09-07 14:52:00,
2013-09-07 09:57:00,82.3,68.0,29.89,WNW,302,0.0,0.0,63,0.00,,,0.00,459.03,Custom,2013-09-07 14:57:00,
2013-09-07 10:02:00,83.0,67.0,29.89,WNW,295,0.0,0.0,60,0.00,,,0.00,470.34,Custom,2013-09-07 15:02:00,
2013-09-07 10:07:00,84.2,68.0,29.89,NW,325,0.0,0.0,59,0.00,,,0.00,485.16,Custom,2013-09-07 15:07:00,
2013-09-07 10:12:00,84.7,68.0,29.89,NW,325,0.0,0.0,58,0.00,,,0.00,502.71,Custom,2013-09-07 15:12:00,
2013-09-07 10:17:00,85.1,67.0,29.88,NNW,328,0.0,0.0,54,0.00,,,0.00,519.09,Custom,2013-09-07 15:17:00,
2013-09-07 10:22:00,85.6,67.0,29.89,NNW,333,0.0,0.0,54,0.00,,,0.00,524.94,Custom,2013-09-07 15:22:00,
2013-09-07 10:27:00,86.0,68.0,29.89,NNW,340,0.0,0.0,54,0.00,,,0.00,539.37,Custom,2013-09-07 15:27:00,
2013-09-07 10:32:00,86.6,68.0,29.89,NW,307,0.0,0.0,53,0.00,,,0.00,554.58,Custom,2013-09-07 15:32:00,
2013-09-07 10:37:00,87.2,68.0,29.89,NW,307,0.0,0.0,52,0.00,,,0.00,560.82,Custom,2013-09-07 15:37:00,
2013-09-07 10:42:00,87.8,68.0,29.89,WNW,301,0.0,0.0,51,0.00,,,0.00,541.32,Custom,2013-09-07 15:42:00,
2013-09-07 10:47:00,88.1,67.0,29.89,WNW,288,0.0,0.0,50,0.00,,,0.00,584.22,Custom,2013-09-07 15:47:00,
2013-09-07 10:52:00,88.3,67.0,29.89,NW,320,0.0,0.0,50,0.00,,,0.00,605.28,Custom,2013-09-07 15:52:00,
2013-09-07 10:57:00,88.5,68.0,29.89,NW,315,0.0,0.0,50,0.00,,,0.00,599.04,Custom,2013-09-07 15:57:00,
2013-09-07 11:02:00,88.1,68.0,29.89,WNW,301,0.0,0.0,51,0.00,,,0.00,623.61,Custom,2013-09-07 16:02:00,
2013-09-07 11:07:00,89.3,69.0,29.88,WNW,301,0.0,0.0,51,0.00,,,0.00,632.19,Custom,2013-09-07 16:07:00,
2013-09-07 11:12:00,88.9,69.0,29.88,WNW,295,0.0,0.0,52,0.00,,,0.00,638.04,Custom,2013-09-07 16:12:00,
2013-09-07 11:17:00,90.3,69.0,29.88,WNW,297,0.0,0.0,50,0.00,,,0.00,653.25,Custom,2013-09-07 16:17:00,
2013-09-07 11:22:00,89.8,69.0,29.88,NW,320,0.0,0.0,50,0.00,,,0.00,663.78,Custom,2013-09-07 16:22:00,
2013-09-07 11:27:00,89.9,68.0,29.88,NW,317,0.0,0.0,49,0.00,,,0.00,667.29,Custom,2013-09-07 16:27:00,
2013-09-07 11:32:00,89.8,69.0,29.88,NW,312,0.0,0.0,50,0.00,,,0.00,681.72,Custom,2013-09-07 16:32:00,
2013-09-07 11:37:00,90.8,70.0,29.88,WNW,303,0.0,0.0,50,0.00,,,0.00,683.28,Custom,2013-09-07 16:37:00,
2013-09-07 11:42:00,91.8,70.0,29.88,NW,316,0.0,0.0,49,0.00,,,0.00,679.77,Custom,2013-09-07 16:42:00,
2013-09-07 11:47:00,91.7,69.0,29.88,WNW,297,0.0,0.0,48,0.00,,,0.00,668.85,Custom,2013-09-07 16:47:00,
2013-09-07 11:52:00,92.2,69.0,29.88,WNW,298,0.0,0.0,47,0.00,,,0.00,653.64,Custom,2013-09-07 16:52:00,
2013-09-07 11:57:00,92.8,69.0,29.88,WNW,296,0.0,0.0,46,0.00,,,0.00,643.11,Custom,2013-09-07 16:57:00,
2013-09-07 12:02:00,92.0,69.0,29.88,NW,307,0.0,0.0,47,0.00,,,0.00,640.77,Custom,2013-09-07 17:02:00,
2013-09-07 12:07:00,92.4,69.0,29.87,NW,314,0.0,0.0,47,0.00,,,0.00,639.21,Custom,2013-09-07 17:07:00,
2013-09-07 12:12:00,93.0,69.0,29.87,NW,312,0.0,0.0,47,0.00,,,0.00,651.69,Custom,2013-09-07 17:12:00,
2013-09-07 12:17:00,93.4,69.0,29.86,NNW,334,0.0,0.0,46,0.00,,,0.00,654.03,Custom,2013-09-07 17:17:00,
2013-09-07 12:22:00,94.2,71.0,29.86,WNW,288,0.0,0.0,47,0.00,,,0.00,662.22,Custom,2013-09-07 17:22:00,
2013-09-07 12:27:00,94.0,70.0,29.86,WNW,293,0.0,0.0,46,0.00,,,0.00,667.29,Custom,2013-09-07 17:27:00,
2013-09-07 12:32:00,94.5,71.0,29.86,WNW,301,0.0,0.0,46,0.00,,,0.00,666.9,Custom,2013-09-07 17:32:00,
2013-09-07 12:37:00,94.9,71.0,29.86,WNW,292,0.0,0.0,46,0.00,,,0.00,666.9,Custom,2013-09-07 17:37:00,
2013-09-07 12:42:00,95.1,70.0,29.86,NW,319,0.0,0.0,45,0.00,,,0.00,665.73,Custom,2013-09-07 17:42:00,
2013-09-07 12:47:00,95.8,70.0,29.86,WNW,301,0.0,0.0,44,0.00,,,0.00,664.17,Custom,2013-09-07 17:47:00,
2013-09-07 12:52:00,94.7,70.0,29.85,NW,304,0.0,0.0,45,0.00,,,0.00,664.17,Custom,2013-09-07 17:52:00,
2013-09-07 12:57:00,95.5,71.0,29.85,WNW,297,0.0,0.0,45,0.00,,,0.00,662.61,Custom,2013-09-07 17:57:00,
2013-09-07 13:02:00,96.0,70.0,29.85,NW,312,0.0,0.0,44,0.00,,,0.00,659.49,Custom,2013-09-07 18:02:00,
2013-09-07 13:07:00,96.2,71.0,29.85,WNW,283,0.0,0.0,44,0.00,,,0.00,649.74,Custom,2013-09-07 18:07:00,
2013-09-07 13:12:00,96.0,70.0,29.85,NW,304,0.0,0.0,44,0.00,,,0.00,642.33,Custom,2013-09-07 18:12:00,
2013-09-07 13:17:00,95.9,70.0,29.86,WNW,300,0.0,0.0,43,0.00,,,0.00,650.13,Custom,2013-09-07 18:17:00,
2013-09-07 13:22:00,96.5,72.0,29.85,NW,314,0.0,0.0,46,0.00,,,0.00,648.96,Custom,2013-09-07 18:22:00,
2013-09-07 13:27:00,96.7,70.0,29.85,WNW,294,0.0,0.0,43,0.00,,,0.00,652.08,Custom,2013-09-07 18:27:00,
2013-09-07 13:32:00,97.8,71.0,29.85,NW,316,0.0,0.0,43,0.00,,,0.00,653.64,Custom,2013-09-07 18:32:00,
2013-09-07 13:37:00,96.8,70.0,29.85,WNW,298,0.0,0.0,42,0.00,,,0.00,648.96,Custom,2013-09-07 18:37:00,
2013-09-07 13:42:00,97.4,71.0,29.85,WNW,301,0.0,0.0,43,0.00,,,0.00,641.94,Custom,2013-09-07 18:42:00,
2013-09-07 13:47:00,97.1,70.0,29.85,NW,316,0.0,0.0,42,0.00,,,0.00,643.5,Custom,2013-09-07 18:47:00,
2013-09-07 13:52:00,97.7,71.0,29.85,WNW,301,0.0,0.0,42,0.00,,,0.00,643.11,Custom,2013-09-07 18:52:00,
2013-09-07 13:57:00,98.6,71.0,29.85,WNW,302,0.0,0.0,41,0.00,,,0.00,645.84,Custom,2013-09-07 18:57:00,
2013-09-07 14:02:00,97.9,71.0,29.85,NW,308,0.0,0.0,42,0.00,,,0.00,638.04,Custom,2013-09-07 19:02:00,
2013-09-07 14:07:00,98.2,71.0,29.85,WNW,296,0.0,0.0,42,0.00,,,0.00,642.33,Custom,2013-09-07 19:07:00,
2013-09-07 14:12:00,98.6,71.0,29.84,WNW,303,0.0,0.0,41,0.00,,,0.00,651.3,Custom,2013-09-07 19:12:00,
2013-09-07 14:17:00,98.6,71.0,29.84,WNW,300,0.0,0.0,42,0.00,,,0.00,673.53,Custom,2013-09-07 19:17:00,
2013-09-07 14:22:00,98.8,71.0,29.83,WNW,301,0.0,0.0,41,0.00,,,0.00,674.31,Custom,2013-09-07 19:22:00,
2013-09-07 14:27:00,99.1,72.0,29.83,WNW,292,0.0,0.0,42,0.00,,,0.00,675.09,Custom,2013-09-07 19:27:00,
2013-09-07 14:32:00,99.1,71.0,29.83,NW,304,0.0,0.0,40,0.00,,,0.00,676.65,Custom,2013-09-07 19:32:00,
2013-09-07 14:37:00,99.4,72.0,29.82,NW,317,0.0,0.0,41,0.00,,,0.00,675.87,Custom,2013-09-07 19:37:00,
2013-09-07 14:42:00,100.0,73.0,29.82,WNW,301,0.0,0.0,42,0.00,,,0.00,675.87,Custom,2013-09-07 19:42:00,
2013-09-07 14:47:00,99.4,71.0,29.82,WNW,299,0.0,0.0,40,0.00,,,0.00,674.31,Custom,2013-09-07 19:47:00,
2013-09-07 14:52:00,100.0,72.0,29.82,WNW,302,0.0,0.0,41,0.00,,,0.00,652.86,Custom,2013-09-07 19:52:00,
2013-09-07 14:57:00,99.5,72.0,29.82,WNW,301,0.0,0.0,42,0.00,,,0.00,663,Custom,2013-09-07 19:57:00,
2013-09-07 15:02:00,100.1,72.0,29.81,WNW,303,0.0,0.0,41,0.00,,,0.00,603.72,Custom,2013-09-07 20:02:00,
2013-09-07 15:07:00,100.2,70.0,29.81,NW,315,0.0,0.0,38,0.00,,,0.00,613.08,Custom,2013-09-07 20:07:00,
2013-09-07 15:12:00,99.5,70.0,29.81,NW,310,0.0,0.0,39,0.00,,,0.00,605.28,Custom,2013-09-07 20:12:00,
2013-09-07 15:17:00,98.5,70.0,29.81,WNW,303,0.0,0.0,40,0.00,,,0.00,597.48,Custom,2013-09-07 20:17:00,
2013-09-07 15:22:00,99.8,71.0,29.81,NW,313,0.0,0.0,40,0.00,,,0.00,610.74,Custom,2013-09-07 20:22:00,
2013-09-07 15:27:00,99.7,71.0,29.81,NW,322,0.0,0.0,40,0.00,,,0.00,614.25,Custom,2013-09-07 20:27:00,
2013-09-07 15:32:00,99.1,70.0,29.81,WNW,295,0.0,0.0,39,0.00,,,0.00,606.06,Custom,2013-09-07 20:32:00,
2013-09-07 15:37:00,99.8,70.0,29.80,WNW,301,0.0,0.0,39,0.00,,,0.00,597.09,Custom,2013-09-07 20:37:00,
2013-09-07 15:42:00,99.1,70.0,29.81,NW,305,0.0,0.0,39,0.00,,,0.00,579.54,Custom,2013-09-07 20:42:00,
2013-09-07 15:47:00,99.2,70.0,29.80,WNW,298,0.0,0.0,40,0.00,,,0.00,569.79,Custom,2013-09-07 20:47:00,
2013-09-07 15:52:00,99.2,71.0,29.80,NW,311,0.0,0.0,40,0.00,,,0.00,556.53,Custom,2013-09-07 20:52:00,
2013-09-07 15:57:00,99.6,72.0,29.80,WNW,295,0.0,0.0,41,0.00,,,0.00,544.05,Custom,2013-09-07 20:57:00,
2013-09-07 16:02:00,99.2,70.0,29.80,NW,324,0.0,0.0,39,0.00,,,0.00,528.06,Custom,2013-09-07 21:02:00,
2013-09-07 16:07:00,99.7,71.0,29.80,WNW,302,0.0,0.0,39,0.00,,,0.00,517.92,Custom,2013-09-07 21:07:00,
2013-09-07 16:12:00,99.4,70.0,29.80,NW,307,0.0,0.0,39,0.00,,,0.00,503.88,Custom,2013-09-07 21:12:00,
2013-09-07 16:17:00,98.9,70.0,29.80,WNW,303,0.0,0.0,40,0.00,,,0.00,485.55,Custom,2013-09-07 21:17:00,
2013-09-07 16:22:00,99.3,72.0,29.80,NW,323,0.0,0.0,42,0.00,,,0.00,477.36,Custom,2013-09-07 21:22:00,
2013-09-07 16:27:00,99.4,71.0,29.80,WNW,302,0.0,0.0,40,0.00,,,0.00,459.03,Custom,2013-09-07 21:27:00,
2013-09-07 16:32:00,98.9,71.0,29.80,NW,306,0.0,0.0,41,0.00,,,0.00,444.21,Custom,2013-09-07 21:32:00,
2013-09-07 16:37:00,98.9,71.0,29.80,NW,308,0.0,0.0,41,0.00,,,0.00,431.34,Custom,2013-09-07 21:37:00,
2013-09-07 16:42:00,99.3,71.0,29.80,WNW,293,0.0,0.0,40,0.00,,,0.00,413.79,Custom,2013-09-07 21:42:00,
2013-09-07 16:47:00,98.7,71.0,29.80,NW,310,0.0,0.0,41,0.00,,,0.00,397.41,Custom,2013-09-07 21:47:00,
2013-09-07 16:52:00,98.5,71.0,29.80,NW,318,0.0,0.0,41,0.00,,,0.00,382.59,Custom,2013-09-07 21:52:00,
2013-09-07 16:57:00,97.8,71.0,29.80,NW,306,0.0,0.0,41,0.00,,,0.00,366.6,Custom,2013-09-07 21:57:00,
2013-09-07 17:02:00,97.8,71.0,29.80,WNW,299,0.0,0.0,43,0.00,,,0.00,255.06,Custom,2013-09-07 22:02:00,
2013-09-07 17:07:00,96.7,70.0,29.80,WNW,303,0.0,0.0,42,0.00,,,0.00,90.48,Custom,2013-09-07 22:07:00,
2013-09-07 17:12:00,96.2,71.0,29.80,NW,306,0.0,0.0,44,0.00,,,0.00,78,Custom,2013-09-07 22:12:00,
2013-09-07 17:17:00,95.9,71.0,29.79,NW,307,0.0,0.0,45,0.00,,,0.00,55.38,Custom,2013-09-07 22:17:00,
2013-09-07 17:22:00,95.1,71.0,29.80,WNW,302,0.0,0.0,45,0.00,,,0.00,51.48,Custom,2013-09-07 22:22:00,
2013-09-07 17:27:00,95.2,71.0,29.79,NW,324,0.0,0.0,46,0.00,,,0.00,51.09,Custom,2013-09-07 22:27:00,
2013-09-07 17:32:00,94.9,71.0,29.80,WNW,298,0.0,0.0,45,0.00,,,0.00,54.6,Custom,2013-09-07 22:32:00,
2013-09-07 17:37:00,94.6,71.0,29.79,NNW,331,0.0,0.0,46,0.00,,,0.00,46.8,Custom,2013-09-07 22:37:00,
2013-09-07 17:42:00,94.1,71.0,29.79,NW,305,0.0,0.0,46,0.00,,,0.00,42.9,Custom,2013-09-07 22:42:00,
2013-09-07 17:47:00,94.1,71.0,29.79,WNW,303,0.0,0.0,47,0.00,,,0.00,41.73,Custom,2013-09-07 22:47:00,
2013-09-07 17:52:00,93.7,70.0,29.80,WNW,293,0.0,0.0,47,0.00,,,0.00,40.56,Custom,2013-09-07 22:52:00,
2013-09-07 17:57:00,93.6,71.0,29.80,NW,306,0.0,0.0,47,0.00,,,0.00,38.61,Custom,2013-09-07 22:57:00,
2013-09-07 18:02:00,93.4,71.0,29.80,WNW,302,0.0,0.0,48,0.00,,,0.00,37.05,Custom,2013-09-07 23:02:00,
2013-09-07 18:07:00,93.2,71.0,29.80,NW,310,0.0,0.0,48,0.00,,,0.00,35.88,Custom,2013-09-07 23:07:00,
2013-09-07 18:12:00,92.7,70.0,29.80,NW,305,0.0,0.0,48,0.00,,,0.00,34.71,Custom,2013-09-07 23:12:00,
2013-09-07 18:17:00,92.4,71.0,29.79,NW,308,0.0,0.0,49,0.00,,,0.00,32.76,Custom,2013-09-07 23:17:00,
2013-09-07 18:22:00,92.1,71.0,29.79,NW,304,0.0,0.0,50,0.00,,,0.00,31.98,Custom,2013-09-07 23:22:00,
2013-09-07 18:27:00,92.0,71.0,29.79,NW,317,0.0,0.0,51,0.00,,,0.00,30.42,Custom,2013-09-07 23:27:00,
2013-09-07 18:32:00,91.9,71.0,29.79,NW,321,0.0,0.0,51,0.00,,,0.00,28.86,Custom,2013-09-07 23:32:00,
2013-09-07 18:37:00,91.3,71.0,29.79,NW,316,0.0,0.0,51,0.00,,,0.00,28.08,Custom,2013-09-07 23:37:00,
2013-09-07 18:42:00,91.0,71.0,29.79,NW,318,0.0,0.0,52,0.00,,,0.00,26.52,Custom,2013-09-07 23:42:00,
2013-09-07 18:47:00,90.6,71.0,29.79,NW,312,0.0,0.0,53,0.00,,,0.00,24.18,Custom,2013-09-07 23:47:00,
2013-09-07 18:52:00,90.5,71.0,29.79,NW,311,0.0,0.0,52,0.00,,,0.00,23.01,Custom,2013-09-07 23:52:00,
2013-09-07 18:57:00,90.2,71.0,29.79,NW,312,0.0,0.0,54,0.00,,,0.00,21.45,Custom,2013-09-07 23:57:00,
2013-09-07 19:02:00,89.4,71.0,29.79,NW,312,0.0,0.0,55,0.00,,,0.00,19.5,Custom,2013-09-08 00:02:00,
2013-09-07 19:07:00,88.8,71.0,29.80,NW,311,0.0,0.0,55,0.00,,,0.00,17.55,Custom,2013-09-08 00:07:00,
2013-09-07 19:12:00,88.2,71.0,29.79,NW,309,0.0,0.0,57,0.00,,,0.00,14.43,Custom,2013-09-08 00:12:00,
2013-09-07 19:17:00,88.1,71.0,29.79,NW,310,0.0,0.0,57,0.00,,,0.00,12.09,Custom,2013-09-08 00:17:00,
2013-09-07 19:23:00,87.4,71.0,29.79,NW,311,0.0,0.0,59,0.00,,,0.00,10.92,Custom,2013-09-08 00:23:00,
2013-09-07 19:28:00,86.8,71.0,29.79,NW,320,0.0,0.0,60,0.00,,,0.00,8.97,Custom,2013-09-08 00:28:00,
2013-09-07 19:33:00,86.3,71.0,29.79,NW,323,0.0,0.0,60,0.00,,,0.00,7.8,Custom,2013-09-08 00:33:00,
2013-09-07 19:38:00,85.9,71.0,29.79,NW,316,0.0,0.0,62,0.00,,,0.00,0,Custom,2013-09-08 00:38:00,
2013-09-07 19:43:00,85.7,71.0,29.79,NW,312,0.0,0.0,62,0.00,,,0.00,0,Custom,2013-09-08 00:43:00,
2013-09-07 19:48:00,85.0,71.0,29.79,NW,313,0.0,0.0,64,0.00,,,0.00,0,Custom,2013-09-08 00:48:00,
2013-09-07 19:53:00,84.8,72.0,29.79,NW,310,0.0,0.0,65,0.00,,,0.00,0,Custom,2013-09-08 00:53:00,
2013-09-07 19:58:00,84.0,71.0,29.79,NW,312,0.0,0.0,65,0.00,,,0.00,0,Custom,2013-09-08 00:58:00,
2013-09-07 20:03:00,83.5,71.0,29.79,NW,318,0.0,0.0,66,0.00,,,0.00,0,Custom,2013-09-08 01:03:00,
2013-09-07 20:08:00,83.1,71.0,29.79,NNW,339,0.0,0.0,67,0.00,,,0.00,0,Custom,2013-09-08 01:08:00,
2013-09-07 20:13:00,82.5,71.0,29.79,NW,312,0.0,0.0,68,0.00,,,0.00,0,Custom,2013-09-08 01:13:00,
2013-09-07 20:18:00,82.4,71.0,29.79,NW,319,0.0,0.0,68,0.00,,,0.00,0,Custom,2013-09-08 01:18:00,
2013-09-07 20:23:00,82.3,71.0,29.79,NNW,338,0.0,0.0,69,0.00,,,0.00,0,Custom,2013-09-08 01:23:00,
2013-09-07 20:28:00,82.0,71.0,29.79,NNW,341,0.0,0.0,70,0.00,,,0.00,0,Custom,2013-09-08 01:28:00,
2013-09-07 20:33:00,81.7,71.0,29.79,NNW,331,0.0,0.0,70,0.00,,,0.00,0,Custom,2013-09-08 01:33:00,
2013-09-07 20:38:00,81.5,71.0,29.79,North,349,0.0,0.0,70,0.00,,,0.00,0,Custom,2013-09-08 01:38:00,
2013-09-07 20:43:00,81.2,71.0,29.79,NNW,346,0.0,0.0,71,0.00,,,0.00,0,Custom,2013-09-08 01:43:00,
2013-09-07 20:48:00,81.1,71.0,29.78,NNW,346,0.0,0.0,71,0.00,,,0.00,0,Custom,2013-09-08 01:48:00,
2013-09-07 20:53:00,80.9,71.0,29.78,NNW,343,0.0,0.0,71,0.00,,,0.00,0,Custom,2013-09-08 01:53:00,
2013-09-07 20:58:00,81.1,71.0,29.78,North,358,0.0,0.0,71,0.00,,,0.00,0,Custom,2013-09-08 01:58:00,
2013-09-07 21:03:00,80.9,71.0,29.78,NNW,342,0.0,0.0,71,0.00,,,0.00,0,Custom,2013-09-08 02:03:00,
2013-09-07 21:08:00,81.1,71.0,29.78,NNW,343,0.0,0.0,71,0.00,,,0.00,0,Custom,2013-09-08 02:08:00,
2013-09-07 21:13:00,81.2,71.0,29.78,NNW,341,0.0,0.0,70,0.00,,,0.00,0,Custom,2013-09-08 02:13:00,
2013-09-07 21:18:00,81.5,71.0,29.78,NNW,342,0.0,0.0,70,0.00,,,0.00,0,Custom,2013-09-08 02:18:00,
2013-09-07 21:23:00,81.5,71.0,29.78,NNW,338,0.0,0.0,70,0.00,,,0.00,0,Custom,2013-09-08 02:23:00,
2013-09-07 21:28:00,81.5,71.0,29.78,NNW,338,0.0,0.0,70,0.00,,,0.00,0,Custom,2013-09-08 02:28:00,
2013-09-07 21:33:00,81.3,70.0,29.78,NNW,338,0.0,0.0,69,0.00,,,0.00,0,Custom,2013-09-08 02:33:00,
2013-09-07 21:38:00,81.4,71.0,29.78,NNW,335,0.0,0.0,70,0.00,,,0.00,0,Custom,2013-09-08 02:38:00,
2013-09-07 21:43:00,81.7,71.0,29.78,NNW,336,0.0,0.0,69,0.00,,,0.00,0,Custom,2013-09-08 02:43:00,
2013-09-07 21:48:00,81.8,71.0,29.78,NNW,338,0.0,0.0,69,0.00,,,0.00,0,Custom,2013-09-08 02:48:00,
2013-09-07 21:53:00,81.8,70.0,29.78,NNW,344,0.0,0.0,68,0.00,,,0.00,0,Custom,2013-09-08 02:53:00,
2013-09-07 21:58:00,82.0,70.0,29.78,NNW,335,0.0,0.0,68,0.00,,,0.00,0,Custom,2013-09-08 02:58:00,
2013-09-07 22:03:00,81.8,70.0,29.78,NW,313,0.0,0.0,68,0.00,,,0.00,0,Custom,2013-09-08 03:03:00,
2013-09-07 22:08:00,81.8,70.0,29.78,NNW,333,0.0,0.0,68,0.00,,,0.00,0,Custom,2013-09-08 03:08:00,
2013-09-07 22:13:00,81.4,70.0,29.78,NNW,333,0.0,0.0,69,0.00,,,0.00,0,Custom,2013-09-08 03:13:00,
2013-09-07 22:18:00,81.0,70.0,29.79,NNW,333,0.0,0.0,69,0.00,,,0.00,0,Custom,2013-09-08 03:18:00,
2013-09-07 22:23:00,80.7,70.0,29.79,NW,309,0.0,0.0,70,0.00,,,0.00,0,Custom,2013-09-08 03:23:00,
2013-09-07 22:28:00,80.3,70.0,29.79,NW,307,0.0,0.0,70,0.00,,,0.00,0,Custom,2013-09-08 03:28:00,
2013-09-07 22:33:00,79.8,70.0,29.80,NW,308,0.0,0.0,71,0.00,,,0.00,0,Custom,2013-09-08 03:33:00,
2013-09-07 22:38:00,79.4,70.0,29.80,NW,307,0.0,0.0,72,0.00,,,0.00,0,Custom,2013-09-08 03:38:00,
2013-09-07 22:43:00,79.0,70.0,29.80,NW,308,0.0,0.0,73,0.00,,,0.00,0,Custom,2013-09-08 03:43:00,
2013-09-07 22:48:00,78.7,70.0,29.80,NW,307,0.0,0.0,74,0.00,,,0.00,0,Custom,2013-09-08 03:48:00,
2013-09-07 22:53:00,78.4,69.0,29.80,NW,307,0.0,0.0,74,0.00,,,0.00,0,Custom,2013-09-08 03:53:00,
2013-09-07 22:58:00,78.1,69.0,29.80,NW,307,0.0,0.0,75,0.00,,,0.00,0,Custom,2013-09-08 03:58:00,
2013-09-07 23:01:00,77.9,69.0,29.80,NW,308,0.0,0.0,75,0.00,,,0.00,0,Custom,2013-09-08 04:01:00,
2013-09-07 23:02:00,77.9,69.0,29.80,NW,308,0.0,0.0,75,0.00,,,0.00,0,Custom,2013-09-08 04:02:00,
2013-09-07 23:03:00,77.9,69.0,29.80,NW,308,0.0,0.0,75,0.00,,,0.00,0,Custom,2013-09-08 04:03:00,
2013-09-07 23:05:00,77.9,70.0,29.80,NW,309,0.0,0.0,76,0.00,,,0.00,0,Custom,2013-09-08 04:05:00,
2013-09-07 23:06:00,77.7,69.0,29.80,NW,309,0.0,0.0,76,0.00,,,0.00,0,Custom,2013-09-08 04:06:00,
2013-09-07 23:11:00,77.7,70.0,29.79,NW,309,0.0,0.0,76,0.00,,,0.00,0,Custom,2013-09-08 04:11:00,
2013-09-07 23:16:00,78.2,70.0,29.79,NW,313,0.0,0.0,76,0.00,,,0.00,0,Custom,2013-09-08 04:16:00,
2013-09-07 23:21:00,78.6,70.0,29.80,NW,313,0.0,0.0,75,0.00,,,0.00,0,Custom,2013-09-08 04:21:00,
2013-09-07 23:27:00,78.6,70.0,29.79,NW,309,0.0,0.0,75,0.00,,,0.00,0,Custom,2013-09-08 04:27:00,
2013-09-07 23:32:00,78.8,70.0,29.79,NW,308,0.0,0.0,75,0.00,,,0.00,0,Custom,2013-09-08 04:32:00,
2013-09-07 23:37:00,78.9,70.0,29.80,NW,326,0.0,0.0,74,0.00,,,0.00,0,Custom,2013-09-08 04:37:00,
2013-09-07 23:42:00,78.8,70.0,29.79,NW,308,0.0,0.0,75,0.00,,,0.00,0,Custom,2013-09-08 04:42:00,
2013-09-07 23:47:00,78.8,70.0,29.79,NW,308,0.0,0.0,75,0.00,,,0.00,0,Custom,2013-09-08 04:47:00,
2013-09-07 23:52:00,78.9,70.0,29.79,NW,308,0.0,0.0,74,0.00,,,0.00,0,Custom,2013-09-08 04:52:00,
2013-09-07 23:57:00,79.0,70.0,29.79,NNW,335,0.0,0.0,74,0.00,,,0.00,0,Custom,2013-09-08 04:57:00,